Weather in Gorelki

Russia / Tula Oblast     54°15′26″N   37°36′59″E
temp.,
°C
wind,
m/s
gust,
m/s
humid.,
%
clouds,
%
prec.,
mm/h
press.,
hPa
HPBL,
m
12 april, mon
mon1200:00+7e3466100 0.0 103268
03:00+6ene3969100 0.0 1032182
06:00+5ene41368100 0.0 1032347
09:00+8e61449100 0.0 1031543
12:00+11e6966100 0.0 1030633
15:00+13e5865100 0.0 1028725
18:00+13ese51072100 0.0 1027667
21:00+10e41087100 0.0 1027224
13 april, tue
tue1300:00+9ese4118935 0.0 1026219
03:00+9se4108379 0.0 1026179
06:00+8se3677100 0.0 102698
09:00+12sse4105598 0.0 1025345
12:00+18sse593917 0.0 10251038
15:00+19sse673410 0.0 10241760
18:00+18sse484410 0.0 1023502
21:00+14se4105587 0.0 1023185
14 april, wed
wed1400:00+13sse514555 0.0 1023354
03:00+10se376353 0.0 1023142
06:00+8se3469100 0.0 102271
09:00+13se475380 0.0 1021299
12:00+18se683744 0.0 1020953
15:00+19sse6830100 0.0 10191716
18:00+17se3740100 0.0 1018413
21:00+13se3448100 0.0 101870
15 april, thu
thu1500:00+11se3456100 0.0 101769
03:00+9s2264100 0.0 101744
06:00+9w1166100 0.0 101711
09:00+13n1158100 0.0 101779
12:00+17se3640100 0.0 10161697
15:00+17s344098 0.0 10151971
18:00+16ssw114999 0.0 101534
21:00+13ne2257100 0.0 101517
16 april, fri
fri1600:00+12ne2254100 0.0 101436
03:00+11ne41167100 0.0 1014295
06:00+10ne51277100 0.1 1015449
09:00+10ne71183100 0.2 1016646
12:00+10ne81079100 0.0 1017759
15:00+6ne81487100 0.6 1018672
18:00+4ne101792100 2.5 1020844
21:00+6ne91662100 2.8 10211203